Regional Weather Roundup
Issued by NWS Little Rock, AR

Home | Current Version | Previous Version | Graphics & Text | Print | Product List | Glossary On
Versions: 1 2 3 4 5 6 7 8 9 10 11 12 13 14 15 16 17 18 19 20 21 22 23 24 25 26 27 28 29 30 31 32 33 34 35 36 37 38 39 40 41 42 43 44 45 46 47 48 49 50
398
ASUS44 KLZK 300305
RWRLZK

WEATHER ROUNDUP FOR ARKANSAS
NATIONAL WEATHER SERVICE LITTLE ROCK AR
1000 PM CDT FRI APR 29 2016

NOTE: "FAIR" INDICATES FEW OR NO CLOUDS BELOW 12,000 FEET WITH NO
SIGNIFICANT WEATHER AND/OR OBSTRUCTIONS TO VISIBILITY.

ARZ001-003-010-029-300400-
NORTHWEST ARKANSAS

CITY           SKY/WX    TMP DP  RH WIND       PRES   REMARKS
FAYETTEVILLE   CLOUDY    66  63  90 S8        29.74R
FORT SMITH     RAIN      68  62  81 E15G31    29.61F
HARRISON       RAIN      60  60 100 E8        29.80S FOG
BENTONVILLE    CLOUDY    64  61  88 SE6       29.76R
ROGERS         LGT RAIN  63  62  97 SE8       29.77R
SILOAM SPGS    CLOUDY    64  55  72 SE14G22   29.74R
HIGHFILL       LGT RAIN  66  64  93 SE10      29.74R
$$

ARZ004-005-016-300400-
NORTH CENTRAL ARKANSAS

CITY           SKY/WX    TMP DP  RH WIND       PRES   REMARKS
BATESVILLE     CLOUDY    64  63  94 SW3       29.87R
FLIPPIN        CLOUDY   N/A N/A N/A E5        29.80R
MTN HOME       LGT RAIN  62  61  96 E7        29.82R
$$

ARZ040-041-300400-
WEST CENTRAL ARKANSAS

CITY           SKY/WX    TMP DP  RH WIND       PRES   REMARKS
MENA           CLOUDY    68  68 100 E14       29.71F THUNDER
MOUNT IDA      RAIN      67  65  93 VRB5      29.71F FOG
$$

ARZ009-017-025-026-028-300400-
NORTHEAST ARKANSAS

CITY           SKY/WX    TMP DP  RH WIND       PRES   REMARKS
CORNING          N/A     63  63 100 NE10      29.88R
JONESBORO      CLOUDY    64  61  90 E6        29.85R
NEWPORT        CLOUDY    65  65 100 E6        29.86R
WALNUT RIDGE   CLOUDY    63  59  88 NE6       29.86R
BLYTHEVILLE    CLOUDY    64  59  83 SE8       29.87R
$$

ARZ022-023-033-042-044-300400-
CENTRAL ARKANSAS

CITY           SKY/WX    TMP DP  RH WIND       PRES   REMARKS
LITTLE ROCK    TSTM      67  66  97 SE5       29.82R
N LITTLE ROCK    N/A     65  64  96 CALM      29.80R
JACKSONVILLE   TSTM      66  66 100 SW5       29.82R FOG
SEARCY         CLOUDY    64  64 100 N8        29.82F
HOT SPRINGS    TSTM      67  65  93 E14       29.76F FOG
RUSSELLVILLE   HVY RAIN  65  64  97 E6        29.79R FOG
$$

ARZ036-300400-
EAST ARKANSAS

CITY           SKY/WX    TMP DP  RH WIND       PRES   REMARKS
WEST MEMPHIS   CLOUDY    64  63  96 SE9       29.81F
$$

ARZ050-053-066-070-073-300400-
SOUTHWEST ARKANSAS

CITY           SKY/WX    TMP DP  RH WIND       PRES   REMARKS
ARKADELPHIA    RAIN      67  67 100 VRB6      29.73F FOG
CAMDEN         LGT RAIN  66  63  88 E3        29.77R
TEXARKANA      LGT RAIN  70  67  90 SE14G26   29.68R FOG
EL DORADO      CLOUDY    69  65  86 SE10      29.79R
DE QUEEN       TSTM      68  66  93 E12       29.65F
$$

ARZ056-057-069-300400-
SOUTHEAST ARKANSAS

CITY           SKY/WX    TMP DP  RH WIND       PRES   REMARKS
PINE BLUFF     LGT RAIN  67  65  93 E8        29.79F
STUTTGART      CLOUDY    66  61  82 N8        29.81F
MONTICELLO     CLOUDY    69  67  93 SE3       29.81R

$$






USA.gov is the U.S. government's official web portal to all federal, state and local government web resources and services.